EJU13PT LEPA-EGNM

Flight info

Callsign EJU13PT
Flight time 2h 16m
Altitude 34000
Route DRAGO DCT PAPOS DCT UMURE N863 GIROM DCT AGN DCT SECHE DCT UVELI DCT CNA DCT TUPAR UN861 ANG DCT AKIKI UN867 AVANT UM184 HEMEL T420 TNT N57 DENBY DCT LBA
Aircraft A320/M-SDE2E3FGHIJ1RWXYZ/LB1

Departure

Time 2026-05-07 15:55
Airport Palma de Mallorca Airport (LEPA)

Arrival

Time 2026-05-07 18:11
Airport Leeds Bradford Airport (EGNM)
Time Latitude Longitude Altitude Speed Heading
2026-05-07 15:07 39.55160 2.73012 30 ft 0 kts 196°
2026-05-07 15:42 39.55178 2.73017 30 ft 4 kts 184°
2026-05-07 15:42 39.55202 2.73013 30 ft 4 kts 144°
2026-05-07 15:43 39.55216 2.72988 30 ft 4 kts 95°
2026-05-07 15:43 39.55213 2.72958 30 ft 2 kts 59°
2026-05-07 15:43 39.55212 2.72957 30 ft 0 kts 58°
2026-05-07 15:47 39.55233 2.73001 30 ft 11 kts 58°
2026-05-07 15:47 39.55283 2.73097 30 ft 14 kts 51°
2026-05-07 15:47 39.55335 2.73214 30 ft 17 kts 59°
2026-05-07 15:47 39.55401 2.73354 30 ft 19 kts 57°
2026-05-07 15:48 39.55477 2.73508 30 ft 21 kts 58°
2026-05-07 15:48 39.55460 2.73631 30 ft 17 kts 147°
2026-05-07 15:48 39.55352 2.73715 30 ft 20 kts 148°
2026-05-07 15:48 39.55229 2.73812 30 ft 22 kts 149°
2026-05-07 15:49 39.55093 2.73919 30 ft 24 kts 149°
2026-05-07 15:49 39.54947 2.74037 30 ft 26 kts 147°
2026-05-07 15:49 39.54793 2.74121 30 ft 21 kts 203°
2026-05-07 15:49 39.54717 2.73974 30 ft 21 kts 238°
2026-05-07 15:50 39.54636 2.73801 30 ft 24 kts 239°
2026-05-07 15:50 39.54545 2.73608 30 ft 26 kts 239°
2026-05-07 15:50 39.54460 2.73428 30 ft 23 kts 238°
2026-05-07 15:50 39.54389 2.73276 30 ft 18 kts 240°
2026-05-07 15:51 39.54324 2.73145 30 ft 17 kts 237°
2026-05-07 15:51 39.54250 2.73063 30 ft 12 kts 166°
2026-05-07 15:51 39.54226 2.73089 30 ft 0 kts 120°
2026-05-07 15:51 39.54223 2.73106 30 ft 9 kts 102°
2026-05-07 15:52 39.54220 2.73144 30 ft 0 kts 94°
2026-05-07 15:52 39.54219 2.73145 30 ft 1 kts 94°
2026-05-07 15:52 39.54218 2.73169 30 ft 8 kts 94°
2026-05-07 15:53 39.54213 2.73265 30 ft 12 kts 94°
2026-05-07 15:53 39.54221 2.73370 30 ft 11 kts 63°
2026-05-07 15:53 39.54228 2.73385 30 ft 0 kts 57°
2026-05-07 15:54 39.54345 2.73632 30 ft 69 kts 59°
2026-05-07 15:55 39.54705 2.74394 30 ft 127 kts 58°
2026-05-07 15:55 39.55235 2.75523 105 ft 163 kts 59°
2026-05-07 15:55 39.55767 2.76776 843 ft 153 kts 64°
2026-05-07 15:55 39.56295 2.77962 1473 ft 159 kts 61°
2026-05-07 15:56 39.56909 2.79296 1816 ft 181 kts 60°
2026-05-07 15:56 39.57585 2.80750 2120 ft 199 kts 60°
2026-05-07 15:56 39.58308 2.82315 2688 ft 205 kts 61°
2026-05-07 15:56 39.59045 2.83917 3394 ft 209 kts 61°
2026-05-07 15:57 39.59795 2.85550 4176 ft 211 kts 61°
2026-05-07 15:57 39.60551 2.87196 4917 ft 214 kts 61°
2026-05-07 15:57 39.61322 2.88874 5572 ft 218 kts 60°
2026-05-07 15:57 39.62268 2.90413 6253 ft 224 kts 37°
2026-05-07 15:58 39.63740 2.91123 6906 ft 234 kts
2026-05-07 15:58 39.65329 2.90612 7511 ft 243 kts 327°
2026-05-07 15:58 39.66431 2.88965 8183 ft 247 kts 294°
2026-05-07 15:58 39.67072 2.86889 8878 ft 249 kts 289°
2026-05-07 15:59 39.67591 2.84731 9585 ft 251 kts 284°
2026-05-07 15:59 39.68005 2.82514 10236 ft 255 kts 280°
2026-05-07 15:59 39.68308 2.80237 10901 ft 256 kts 276°
2026-05-07 15:59 39.68486 2.77917 11534 ft 260 kts 271°
2026-05-07 16:00 39.68535 2.75572 12220 ft 260 kts 267°
2026-05-07 16:00 39.68453 2.73173 12590 ft 276 kts 263°
2026-05-07 16:00 39.68407 2.70567 12770 ft 301 kts 271°
2026-05-07 16:00 39.68783 2.67788 12926 ft 327 kts 288°
2026-05-07 16:01 39.69709 2.64977 13081 ft 349 kts 293°
2026-05-07 16:01 39.70381 2.63054 13363 ft 356 kts 293°
2026-05-07 16:01 39.71426 2.60100 13914 ft 363 kts 294°
2026-05-07 16:01 39.72491 2.57116 14493 ft 366 kts 293°
2026-05-07 16:02 39.73571 2.54108 15125 ft 367 kts 293°
2026-05-07 16:02 39.74654 2.51090 15720 ft 370 kts 293°
2026-05-07 16:02 39.75734 2.48057 16327 ft 372 kts 293°
2026-05-07 16:02 39.76822 2.45000 16918 ft 374 kts 293°
2026-05-07 16:03 39.77915 2.41915 17519 ft 376 kts 292°
2026-05-07 16:03 39.79008 2.38821 18087 ft 379 kts 292°
2026-05-07 16:03 39.80114 2.35689 18590 ft 382 kts 292°
2026-05-07 16:03 39.81227 2.32538 19058 ft 385 kts 292°
2026-05-07 16:04 39.82345 2.29362 19534 ft 388 kts 292°
2026-05-07 16:04 39.83463 2.26175 20091 ft 388 kts 291°
2026-05-07 16:04 39.84583 2.22978 20572 ft 389 kts 291°
2026-05-07 16:04 39.85709 2.19762 21020 ft 392 kts 291°
2026-05-07 16:05 39.86848 2.16523 21448 ft 395 kts 291°
2026-05-07 16:05 39.87996 2.13259 21886 ft 398 kts 290°
2026-05-07 16:05 39.89157 2.09958 22317 ft 401 kts 290°
2026-05-07 16:05 39.90320 2.06648 22748 ft 404 kts 290°
2026-05-07 16:06 39.91492 2.03304 23157 ft 407 kts 290°
2026-05-07 16:06 39.92669 1.99933 23553 ft 410 kts 290°
2026-05-07 16:06 39.93850 1.96543 23849 ft 413 kts 290°
2026-05-07 16:06 39.95036 1.93136 23921 ft 412 kts 289°
2026-05-07 16:07 39.96218 1.89735 23945 ft 412 kts 289°
2026-05-07 16:07 39.97394 1.86344 23933 ft 410 kts 289°
2026-05-07 16:07 39.98594 1.82970 23935 ft 412 kts 293°
2026-05-07 16:07 40.00157 1.79812 23936 ft 419 kts 304°
2026-05-07 16:08 40.02181 1.77049 23952 ft 424 kts 315°
2026-05-07 16:08 40.04601 1.74819 23942 ft 429 kts 327°
2026-05-07 16:08 40.07330 1.73209 23944 ft 432 kts 335°
2026-05-07 16:08 40.10136 1.71788 23942 ft 432 kts 335°
2026-05-07 16:09 40.12936 1.70358 23945 ft 432 kts 335°
2026-05-07 16:09 40.15698 1.68938 23945 ft 432 kts 335°
2026-05-07 16:09 40.18495 1.67494 23944 ft 432 kts 335°
2026-05-07 16:09 40.21296 1.66050 23949 ft 433 kts 335°
2026-05-07 16:10 40.24099 1.64609 23942 ft 433 kts 335°
2026-05-07 16:10 40.26884 1.63176 23950 ft 428 kts 334°
2026-05-07 16:10 40.29649 1.61752 23946 ft 426 kts 334°
2026-05-07 16:10 40.32402 1.60335 23942 ft 425 kts 334°
2026-05-07 16:11 40.35156 1.58916 23950 ft 425 kts 334°
2026-05-07 16:11 40.37905 1.57495 23951 ft 425 kts 334°
2026-05-07 16:11 40.40658 1.56069 23951 ft 425 kts 334°
2026-05-07 16:11 40.43406 1.54644 23951 ft 425 kts 334°
2026-05-07 16:12 40.46154 1.53217 23947 ft 425 kts 334°
2026-05-07 16:12 40.48911 1.51786 23953 ft 428 kts 335°
2026-05-07 16:12 40.51684 1.50346 23956 ft 430 kts 335°
2026-05-07 16:12 40.54464 1.48901 23956 ft 430 kts 335°
2026-05-07 16:13 40.57243 1.47452 23953 ft 430 kts 335°
2026-05-07 16:13 40.60024 1.46002 23957 ft 430 kts 335°
2026-05-07 16:13 40.62804 1.44552 23956 ft 430 kts 335°
2026-05-07 16:13 40.65586 1.43100 23959 ft 430 kts 335°
2026-05-07 16:14 40.68367 1.41647 23955 ft 430 kts 335°
2026-05-07 16:14 40.71147 1.40194 23958 ft 430 kts 335°
2026-05-07 16:14 40.73928 1.38742 23958 ft 430 kts 335°
2026-05-07 16:14 40.76706 1.37287 23958 ft 429 kts 335°
2026-05-07 16:15 40.79482 1.35832 23957 ft 429 kts 335°
2026-05-07 16:15 40.82259 1.34375 23958 ft 430 kts 335°
2026-05-07 16:15 40.85040 1.32916 23957 ft 430 kts 335°
2026-05-07 16:15 40.87820 1.31458 23960 ft 430 kts 335°
2026-05-07 16:16 40.90600 1.29998 23970 ft 430 kts 335°
2026-05-07 16:16 40.93384 1.28533 23954 ft 431 kts 335°
2026-05-07 16:16 40.96167 1.27066 23952 ft 431 kts 336°
2026-05-07 16:16 40.98911 1.25618 23949 ft 430 kts 335°
2026-05-07 16:17 41.01691 1.24149 23955 ft 431 kts 335°
2026-05-07 16:17 41.04471 1.22672 23952 ft 430 kts 335°
2026-05-07 16:17 41.07252 1.21197 23948 ft 430 kts 335°
2026-05-07 16:17 41.10036 1.19725 23948 ft 431 kts 335°
2026-05-07 16:18 41.12820 1.18267 23944 ft 431 kts 337°
2026-05-07 16:18 41.15716 1.17199 23951 ft 434 kts 347°
2026-05-07 16:18 41.18720 1.16721 23954 ft 436 kts 354°
2026-05-07 16:18 41.21741 1.16413 23957 ft 435 kts 354°
2026-05-07 16:19 41.24750 1.16105 23957 ft 434 kts 354°
2026-05-07 16:19 41.27765 1.15795 23947 ft 435 kts 354°
2026-05-07 16:19 41.30780 1.15480 23948 ft 435 kts 354°
2026-05-07 16:19 41.33799 1.15159 23947 ft 435 kts 354°
2026-05-07 16:20 41.36798 1.14840 23971 ft 434 kts 353°
2026-05-07 16:20 41.39815 1.14518 24370 ft 435 kts 353°
2026-05-07 16:20 41.42826 1.14199 24791 ft 436 kts 353°
2026-05-07 16:20 41.45859 1.13878 25154 ft 438 kts 353°
2026-05-07 16:21 41.48912 1.13556 25510 ft 440 kts 353°
2026-05-07 16:21 41.51924 1.13240 25831 ft 443 kts 353°
2026-05-07 16:21 41.55004 1.12916 26152 ft 445 kts 353°
2026-05-07 16:21 41.58098 1.12588 26470 ft 447 kts 353°
2026-05-07 16:22 41.61213 1.12255 26792 ft 450 kts 353°
2026-05-07 16:22 41.64336 1.11923 27086 ft 453 kts 353°
2026-05-07 16:22 41.67491 1.11589 27385 ft 456 kts 353°
2026-05-07 16:22 41.70664 1.11251 27676 ft 459 kts 352°
2026-05-07 16:23 41.73852 1.10909 27983 ft 461 kts 352°
2026-05-07 16:23 41.77053 1.10571 28273 ft 464 kts 352°
2026-05-07 16:23 41.80284 1.10228 28541 ft 467 kts 352°
2026-05-07 16:23 41.83540 1.09880 28829 ft 470 kts 352°
2026-05-07 16:24 41.86814 1.09534 29109 ft 473 kts 352°
2026-05-07 16:24 41.90098 1.09186 29381 ft 475 kts 351°
2026-05-07 16:24 41.93404 1.08834 29631 ft 477 kts 351°
2026-05-07 16:24 41.96724 1.08477 29885 ft 481 kts 351°
2026-05-07 16:25 42.00066 1.08119 30126 ft 482 kts 351°
2026-05-07 16:25 42.03412 1.07761 30384 ft 484 kts 351°
2026-05-07 16:25 42.06776 1.07403 30630 ft 485 kts 351°
2026-05-07 16:25 42.10145 1.07045 30899 ft 486 kts 351°
2026-05-07 16:26 42.13515 1.06685 31257 ft 485 kts 351°
2026-05-07 16:26 42.16869 1.06327 31574 ft 483 kts 351°
2026-05-07 16:26 42.20223 1.05967 31925 ft 483 kts 351°
2026-05-07 16:26 42.23564 1.05609 32326 ft 480 kts 351°
2026-05-07 16:27 42.26855 1.05254 32671 ft 479 kts 351°
2026-05-07 16:27 42.30168 1.04895 33025 ft 478 kts 351°
2026-05-07 16:27 42.33483 1.04533 33350 ft 477 kts 351°
2026-05-07 16:27 42.36793 1.04175 33689 ft 476 kts 351°
2026-05-07 16:28 42.40089 1.03820 33992 ft 476 kts 351°
2026-05-07 16:28 42.43388 1.03466 34290 ft 475 kts 351°
2026-05-07 16:28 42.46692 1.03109 34524 ft 475 kts 351°
2026-05-07 16:28 42.49978 1.02749 34778 ft 474 kts 351°
2026-05-07 16:29 42.53268 1.02383 35019 ft 473 kts 351°
2026-05-07 16:29 42.56546 1.02018 35229 ft 472 kts 351°
2026-05-07 16:29 42.59814 1.01659 35403 ft 471 kts 351°
2026-05-07 16:29 42.63084 1.01301 35607 ft 472 kts 351°
2026-05-07 16:30 42.66356 1.00947 35765 ft 471 kts 351°
2026-05-07 16:30 42.69620 1.00597 35947 ft 471 kts 351°
2026-05-07 16:30 42.72889 1.00242 36158 ft 471 kts 351°
2026-05-07 16:30 42.76155 0.99885 36363 ft 471 kts 351°
2026-05-07 16:31 42.79419 0.99526 36564 ft 470 kts 351°
2026-05-07 16:31 42.82679 0.99166 36764 ft 470 kts 351°
2026-05-07 16:31 42.85943 0.98804 36917 ft 471 kts 351°
2026-05-07 16:32 42.92456 0.98081 36951 ft 469 kts 351°
2026-05-07 16:32 42.98959 0.97364 36949 ft 469 kts 351°
2026-05-07 16:33 43.05465 0.96649 36955 ft 470 kts 351°
2026-05-07 16:33 43.12032 0.95918 36944 ft 476 kts 352°
2026-05-07 16:34 43.18653 0.95178 36940 ft 478 kts 352°
2026-05-07 16:34 43.25291 0.94448 36956 ft 479 kts 352°
2026-05-07 16:35 43.31881 0.93714 36956 ft 478 kts 352°
2026-05-07 16:35 43.38514 0.92969 36955 ft 478 kts 351°
2026-05-07 16:36 43.45140 0.92212 36973 ft 478 kts 352°
2026-05-07 16:36 43.51766 0.91465 36964 ft 477 kts 352°
2026-05-07 16:37 43.58391 0.90740 36962 ft 476 kts 352°
2026-05-07 16:37 43.64989 0.89999 36966 ft 476 kts 352°
2026-05-07 16:38 43.71590 0.89247 36957 ft 476 kts 352°
2026-05-07 16:38 43.78182 0.88500 36950 ft 476 kts 352°
2026-05-07 16:39 43.84782 0.87760 36969 ft 476 kts 352°
2026-05-07 16:39 43.91154 0.85753 36967 ft 466 kts 333°
2026-05-07 16:40 43.97010 0.82001 36962 ft 464 kts 330°
2026-05-07 16:40 44.02861 0.78226 36956 ft 464 kts 331°
2026-05-07 16:41 44.08722 0.74442 36965 ft 464 kts 331°
2026-05-07 16:41 44.14580 0.70653 36966 ft 464 kts 331°
2026-05-07 16:42 44.20425 0.66849 36965 ft 464 kts 331°
2026-05-07 16:42 44.26273 0.63043 36967 ft 464 kts 331°
2026-05-07 16:43 44.32123 0.59234 36954 ft 464 kts 331°
2026-05-07 16:43 44.37972 0.55420 36953 ft 464 kts 331°
2026-05-07 16:44 44.43774 0.51608 36965 ft 464 kts 330°
2026-05-07 16:44 44.49605 0.47750 36960 ft 464 kts 330°
2026-05-07 16:45 44.55434 0.43875 36959 ft 464 kts 330°
2026-05-07 16:45 44.61260 0.39998 36959 ft 463 kts 330°
2026-05-07 16:46 44.67079 0.36121 36973 ft 463 kts 330°
2026-05-07 16:46 44.72899 0.32232 36966 ft 463 kts 330°
2026-05-07 16:47 44.78715 0.28326 36962 ft 463 kts 330°
2026-05-07 16:47 44.84538 0.24423 36958 ft 463 kts 330°
2026-05-07 16:48 44.90353 0.20519 36955 ft 463 kts 330°
2026-05-07 16:48 44.96170 0.16596 36954 ft 463 kts 330°
2026-05-07 16:49 45.01979 0.12678 36964 ft 463 kts 330°
2026-05-07 16:49 45.07792 0.08741 36962 ft 463 kts 330°
2026-05-07 16:50 45.13604 0.04797 36961 ft 463 kts 330°
2026-05-07 16:50 45.19406 0.00843 36976 ft 463 kts 330°
2026-05-07 16:51 45.25209 -0.03121 36974 ft 463 kts 330°
2026-05-07 16:51 45.30969 -0.07047 36970 ft 462 kts 330°
2026-05-07 16:52 45.36770 -0.11004 36965 ft 462 kts 330°
2026-05-07 16:52 45.42558 -0.14982 36970 ft 462 kts 330°
2026-05-07 16:53 45.47404 -0.18328 36968 ft 462 kts 330°
2026-05-07 16:53 45.53188 -0.22319 36964 ft 462 kts 330°
2026-05-07 16:54 45.58968 -0.26311 36916 ft 461 kts 330°
2026-05-07 16:54 45.61852 -0.28306 36347 ft 460 kts 330°
2026-05-07 16:54 45.64729 -0.30295 36007 ft 460 kts 331°
2026-05-07 16:55 45.70791 -0.33319 35965 ft 467 kts 339°
2026-05-07 16:55 45.76995 -0.36109 35964 ft 468 kts 339°
2026-05-07 16:56 45.83194 -0.38915 35964 ft 467 kts 339°
2026-05-07 16:56 45.92494 -0.43139 35966 ft 467 kts 339°
2026-05-07 16:57 45.98694 -0.45954 35974 ft 467 kts 339°
2026-05-07 16:57 46.04892 -0.48778 35966 ft 467 kts 338°
2026-05-07 16:58 46.11077 -0.51614 35967 ft 467 kts 338°
2026-05-07 16:58 46.17269 -0.54455 35977 ft 467 kts 339°
2026-05-07 16:59 46.23417 -0.57274 35966 ft 466 kts 338°
2026-05-07 16:59 46.29600 -0.60119 35969 ft 466 kts 338°
2026-05-07 17:00 46.35777 -0.62962 35973 ft 466 kts 338°
2026-05-07 17:00 46.41970 -0.65771 35971 ft 467 kts 342°
2026-05-07 17:01 46.48429 -0.67201 35969 ft 471 kts 350°
2026-05-07 17:01 46.54943 -0.68283 35970 ft 471 kts 350°
2026-05-07 17:02 46.61459 -0.69370 35973 ft 471 kts 350°
2026-05-07 17:02 46.67972 -0.70475 35972 ft 471 kts 350°
2026-05-07 17:03 46.74478 -0.71578 35971 ft 471 kts 350°
2026-05-07 17:03 46.80990 -0.72679 35973 ft 471 kts 350°
2026-05-07 17:04 46.87453 -0.73772 35974 ft 471 kts 350°
2026-05-07 17:04 46.93970 -0.74886 35975 ft 471 kts 350°
2026-05-07 17:05 47.00469 -0.75994 35972 ft 471 kts 350°
2026-05-07 17:05 47.06971 -0.77106 35978 ft 470 kts 350°
2026-05-07 17:06 47.13480 -0.78226 35975 ft 470 kts 350°
2026-05-07 17:06 47.19987 -0.79347 35982 ft 470 kts 350°
2026-05-07 17:07 47.26485 -0.80467 35978 ft 470 kts 350°
2026-05-07 17:07 47.32986 -0.81586 35980 ft 470 kts 350°
2026-05-07 17:08 47.39472 -0.82702 35992 ft 470 kts 350°
2026-05-07 17:08 47.45962 -0.83831 35976 ft 470 kts 350°
2026-05-07 17:09 47.52410 -0.84960 35974 ft 470 kts 350°
2026-05-07 17:09 47.58871 -0.86329 35983 ft 468 kts 347°
2026-05-07 17:10 47.65268 -0.88103 35986 ft 467 kts 346°
2026-05-07 17:10 47.71654 -0.89937 35987 ft 467 kts 346°
2026-05-07 17:11 47.78064 -0.91675 35987 ft 468 kts 347°
2026-05-07 17:11 47.84461 -0.93350 35996 ft 466 kts 347°
2026-05-07 17:12 47.90847 -0.95035 35993 ft 466 kts 347°
2026-05-07 17:12 47.97228 -0.96753 35993 ft 466 kts 347°
2026-05-07 17:13 48.03602 -0.98476 35992 ft 465 kts 347°
2026-05-07 17:13 48.09967 -1.00191 35997 ft 465 kts 347°
2026-05-07 17:14 48.16334 -1.01907 35997 ft 464 kts 347°
2026-05-07 17:14 48.22690 -1.03630 36009 ft 465 kts 347°
2026-05-07 17:15 48.29010 -1.05346 35995 ft 464 kts 347°
2026-05-07 17:15 48.35363 -1.07069 35999 ft 464 kts 347°
2026-05-07 17:16 48.41712 -1.08810 35996 ft 464 kts 347°
2026-05-07 17:16 48.48062 -1.10546 36000 ft 464 kts 347°
2026-05-07 17:17 48.54418 -1.12277 36000 ft 464 kts 347°
2026-05-07 17:17 48.60761 -1.14020 36000 ft 464 kts 347°
2026-05-07 17:18 48.67107 -1.15774 36002 ft 464 kts 347°
2026-05-07 17:18 48.73458 -1.17543 36005 ft 464 kts 347°
2026-05-07 17:19 48.79805 -1.19307 36004 ft 464 kts 347°
2026-05-07 17:19 48.86158 -1.21062 36009 ft 464 kts 347°
2026-05-07 17:20 48.92512 -1.22818 36007 ft 464 kts 347°
2026-05-07 17:20 48.98874 -1.24581 36007 ft 464 kts 347°
2026-05-07 17:21 49.05221 -1.26366 36010 ft 464 kts 347°
2026-05-07 17:21 49.11567 -1.28149 36003 ft 464 kts 347°
2026-05-07 17:22 49.17877 -1.29927 36013 ft 464 kts 347°
2026-05-07 17:22 49.24227 -1.31735 36013 ft 464 kts 347°
2026-05-07 17:23 49.30567 -1.33535 36027 ft 464 kts 347°
2026-05-07 17:23 49.36924 -1.35324 36024 ft 465 kts 347°
2026-05-07 17:24 49.43278 -1.37125 36018 ft 465 kts 347°
2026-05-07 17:24 49.49640 -1.38946 36024 ft 465 kts 347°
2026-05-07 17:25 49.55995 -1.40771 36029 ft 464 kts 347°
2026-05-07 17:25 49.62443 -1.41380 36031 ft 468 kts
2026-05-07 17:26 49.68948 -1.40787 36026 ft 468 kts
2026-05-07 17:26 49.75460 -1.40214 36029 ft 469 kts
2026-05-07 17:27 49.81959 -1.39647 36029 ft 468 kts
2026-05-07 17:27 49.88466 -1.39071 36031 ft 468 kts
2026-05-07 17:28 49.94977 -1.38486 36032 ft 468 kts
2026-05-07 17:28 50.01465 -1.37685 36035 ft 469 kts
2026-05-07 17:29 50.07911 -1.36069 36035 ft 469 kts
2026-05-07 17:29 50.14355 -1.34465 36035 ft 469 kts
2026-05-07 17:30 50.20791 -1.32865 36039 ft 469 kts
2026-05-07 17:30 50.27242 -1.31257 36038 ft 468 kts
2026-05-07 17:31 50.33678 -1.29655 36038 ft 468 kts
2026-05-07 17:31 50.40058 -1.28041 36040 ft 468 kts
2026-05-07 17:32 50.46486 -1.26380 36041 ft 468 kts 10°
2026-05-07 17:32 50.51680 -1.23710 36044 ft 471 kts 24°
2026-05-07 17:33 50.58236 -1.17556 36043 ft 473 kts 31°
2026-05-07 17:33 50.63812 -1.12022 36044 ft 473 kts 31°
2026-05-07 17:34 50.69378 -1.06497 36051 ft 473 kts 31°
2026-05-07 17:34 50.74937 -1.00944 36051 ft 473 kts 31°
2026-05-07 17:35 50.80506 -0.95408 36051 ft 472 kts 27°
2026-05-07 17:35 50.86553 -0.91483 36053 ft 469 kts 15°
2026-05-07 17:36 50.92766 -0.88308 36051 ft 469 kts 16°
2026-05-07 17:36 50.98966 -0.85092 36050 ft 469 kts 16°
2026-05-07 17:37 51.05165 -0.81851 36053 ft 469 kts 16°
2026-05-07 17:37 51.11368 -0.78610 36055 ft 469 kts 16°
2026-05-07 17:38 51.17565 -0.75374 36056 ft 469 kts 16°
2026-05-07 17:38 51.23756 -0.72123 36056 ft 469 kts 16°
2026-05-07 17:39 51.29961 -0.68863 36056 ft 469 kts 16°
2026-05-07 17:39 51.36157 -0.65592 36057 ft 469 kts 16°
2026-05-07 17:40 51.42346 -0.62325 36057 ft 468 kts 16°
2026-05-07 17:40 51.48535 -0.59056 36054 ft 468 kts 16°
2026-05-07 17:41 51.54721 -0.55759 36061 ft 468 kts 16°
2026-05-07 17:41 51.60906 -0.52463 36053 ft 468 kts 16°
2026-05-07 17:42 51.66045 -0.49722 36054 ft 468 kts 16°
2026-05-07 17:42 51.72235 -0.46433 36057 ft 468 kts 13°
2026-05-07 17:43 51.78618 -0.45136 36054 ft 461 kts 355°
2026-05-07 17:43 51.84885 -0.46996 36050 ft 456 kts 338°
2026-05-07 17:44 51.90499 -0.51575 36061 ft 452 kts 326°
2026-05-07 17:44 51.95891 -0.56832 36046 ft 452 kts 326°
2026-05-07 17:45 52.01273 -0.62104 36048 ft 452 kts 326°
2026-05-07 17:45 52.06661 -0.67390 36049 ft 453 kts 326°
2026-05-07 17:46 52.11994 -0.72629 36055 ft 442 kts 326°
2026-05-07 17:46 52.17222 -0.77786 35970 ft 438 kts 326°
2026-05-07 17:47 52.19842 -0.80376 35056 ft 445 kts 326°
2026-05-07 17:47 52.22444 -0.82956 34560 ft 441 kts 326°
2026-05-07 17:47 52.25056 -0.85543 34063 ft 437 kts 326°
2026-05-07 17:47 52.27648 -0.88111 33511 ft 433 kts 326°
2026-05-07 17:48 52.30211 -0.90651 33031 ft 428 kts 327°
2026-05-07 17:48 52.32743 -0.93166 32547 ft 423 kts 327°
2026-05-07 17:48 52.35240 -0.95653 32080 ft 419 kts 326°
2026-05-07 17:48 52.37717 -0.98129 31613 ft 414 kts 326°
2026-05-07 17:49 52.40162 -1.00579 31158 ft 410 kts 326°
2026-05-07 17:49 52.42583 -1.03010 30699 ft 407 kts 326°
2026-05-07 17:49 52.44986 -1.05423 30269 ft 403 kts 326°
2026-05-07 17:49 52.47360 -1.07802 29784 ft 399 kts 326°
2026-05-07 17:50 52.49709 -1.10154 29362 ft 392 kts 326°
2026-05-07 17:50 52.52021 -1.12475 28960 ft 387 kts 326°
2026-05-07 17:50 52.54300 -1.14769 28549 ft 381 kts 326°
2026-05-07 17:50 52.56545 -1.17030 28153 ft 376 kts 326°
2026-05-07 17:51 52.58760 -1.19263 27758 ft 371 kts 326°
2026-05-07 17:51 52.60945 -1.21467 27368 ft 367 kts 326°
2026-05-07 17:51 52.63109 -1.23655 26983 ft 363 kts 326°
2026-05-07 17:51 52.65242 -1.25819 26588 ft 358 kts 326°
2026-05-07 17:52 52.67354 -1.27964 26193 ft 355 kts 326°
2026-05-07 17:52 52.69452 -1.30093 25802 ft 352 kts 326°
2026-05-07 17:52 52.71531 -1.32203 25397 ft 350 kts 326°
2026-05-07 17:52 52.73600 -1.34303 24993 ft 348 kts 326°
2026-05-07 17:53 52.75655 -1.36397 24563 ft 346 kts 326°
2026-05-07 17:53 52.77700 -1.38489 24156 ft 345 kts 326°
2026-05-07 17:53 52.79708 -1.40549 23748 ft 344 kts 326°
2026-05-07 17:53 52.81737 -1.42630 23283 ft 342 kts 326°
2026-05-07 17:54 52.83755 -1.44696 22863 ft 340 kts 326°
2026-05-07 17:54 52.85758 -1.46744 22454 ft 337 kts 326°
2026-05-07 17:54 52.87743 -1.48773 22047 ft 335 kts 326°
2026-05-07 17:54 52.89719 -1.50800 21644 ft 333 kts 326°
2026-05-07 17:55 52.91684 -1.52824 21254 ft 331 kts 325°
2026-05-07 17:55 52.93633 -1.54836 20846 ft 330 kts 326°
2026-05-07 17:55 52.95576 -1.56839 20464 ft 328 kts 326°
2026-05-07 17:55 52.97515 -1.58834 20090 ft 327 kts 327°
2026-05-07 17:56 52.99557 -1.60388 19913 ft 321 kts 336°
2026-05-07 17:56 53.01623 -1.61772 19541 ft 320 kts 336°
2026-05-07 17:56 53.03689 -1.63162 19158 ft 321 kts 335°
2026-05-07 17:56 53.05765 -1.64562 18763 ft 322 kts 335°
2026-05-07 17:57 53.07839 -1.65962 18370 ft 323 kts 335°
2026-05-07 17:57 53.09279 -1.66939 18077 ft 341 kts 335°
2026-05-07 17:57 53.12251 -1.68961 17497 ft 352 kts 336°
2026-05-07 17:57 53.14526 -1.70507 17076 ft 353 kts 336°
2026-05-07 17:58 53.16795 -1.72040 16649 ft 352 kts 336°
2026-05-07 17:58 53.19061 -1.73571 16244 ft 350 kts 336°
2026-05-07 17:58 53.21312 -1.75097 15825 ft 349 kts 336°
2026-05-07 17:58 53.23562 -1.76626 15413 ft 348 kts 336°
2026-05-07 17:59 53.25807 -1.78150 15019 ft 347 kts 335°
2026-05-07 17:59 53.28041 -1.79666 14602 ft 346 kts 335°
2026-05-07 17:59 53.30276 -1.81187 14183 ft 346 kts 335°
2026-05-07 17:59 53.32501 -1.82706 13771 ft 346 kts 335°
2026-05-07 18:00 53.34726 -1.84227 13330 ft 344 kts 335°
2026-05-07 18:00 53.36932 -1.85737 12914 ft 341 kts 335°
2026-05-07 18:00 53.39125 -1.87242 12501 ft 339 kts 335°
2026-05-07 18:00 53.41371 -1.88384 12079 ft 339 kts 348°
2026-05-07 18:01 53.43698 -1.88956 11676 ft 337 kts 350°
2026-05-07 18:01 53.46012 -1.89464 11272 ft 335 kts 350°
2026-05-07 18:01 53.48321 -1.89958 10865 ft 333 kts 351°
2026-05-07 18:01 53.50607 -1.90439 10478 ft 330 kts 350°
2026-05-07 18:02 53.55122 -1.91362 9621 ft 328 kts 351°
2026-05-07 18:02 53.57386 -1.91819 9105 ft 328 kts 350°
2026-05-07 18:02 53.59647 -1.92287 8601 ft 327 kts 351°
2026-05-07 18:03 53.61919 -1.92477 8116 ft 327 kts 359°
2026-05-07 18:03 53.64187 -1.92361 7667 ft 325 kts
2026-05-07 18:03 53.66412 -1.92225 7441 ft 315 kts
2026-05-07 18:03 53.68580 -1.92089 7212 ft 309 kts
2026-05-07 18:04 53.70721 -1.91957 6986 ft 307 kts
2026-05-07 18:04 53.72855 -1.91833 6775 ft 307 kts
2026-05-07 18:04 53.74982 -1.91710 6548 ft 306 kts
2026-05-07 18:04 53.77109 -1.91596 6322 ft 305 kts
2026-05-07 18:05 53.79224 -1.91488 6079 ft 304 kts
2026-05-07 18:05 53.81341 -1.91389 5838 ft 303 kts
2026-05-07 18:05 53.83410 -1.91297 5605 ft 293 kts
2026-05-07 18:05 53.85420 -1.91220 5368 ft 284 kts
2026-05-07 18:06 53.87366 -1.91147 5138 ft 276 kts
2026-05-07 18:06 53.89258 -1.91076 4912 ft 268 kts
2026-05-07 18:06 53.91104 -1.91015 4690 ft 262 kts
2026-05-07 18:06 53.92899 -1.90965 4441 ft 256 kts
2026-05-07 18:07 53.94670 -1.90891 4208 ft 252 kts
2026-05-07 18:07 53.96292 -1.89962 3975 ft 245 kts 37°
2026-05-07 18:07 53.97371 -1.87842 3735 ft 235 kts 69°
2026-05-07 18:07 53.97680 -1.85247 3525 ft 224 kts 98°
2026-05-07 18:08 53.97246 -1.82802 3285 ft 213 kts 126°
2026-05-07 18:08 53.96269 -1.80984 3075 ft 207 kts 141°
2026-05-07 18:08 53.95223 -1.79374 2978 ft 199 kts 141°
2026-05-07 18:08 53.94246 -1.77863 2910 ft 184 kts 141°
2026-05-07 18:09 53.93320 -1.76432 2641 ft 175 kts 141°
2026-05-07 18:09 53.92453 -1.75092 2389 ft 163 kts 141°
2026-05-07 18:09 53.91656 -1.73861 2151 ft 148 kts 141°
2026-05-07 18:09 53.90924 -1.72732 1918 ft 139 kts 142°
2026-05-07 18:10 53.90219 -1.71649 1722 ft 135 kts 141°
2026-05-07 18:10 53.89523 -1.70582 1511 ft 134 kts 140°
2026-05-07 18:10 53.88842 -1.69494 1281 ft 133 kts 139°
2026-05-07 18:10 53.88145 -1.68438 1036 ft 133 kts 138°
2026-05-07 18:11 53.87459 -1.67397 802 ft 132 kts 137°
2026-05-07 18:11 53.87016 -1.66713 686 ft 129 kts 137°
2026-05-07 18:11 53.86350 -1.65687 673 ft 47 kts 136°
2026-05-07 18:11 53.86261 -1.65474 680 ft 14 kts 57°
2026-05-07 18:12 53.86331 -1.65457 679 ft 9 kts
2026-05-07 18:12 53.86400 -1.65453 673 ft 11 kts
2026-05-07 18:12 53.86495 -1.65440 668 ft 16 kts
2026-05-07 18:12 53.86606 -1.65431 664 ft 17 kts
2026-05-07 18:13 53.86728 -1.65421 661 ft 17 kts
2026-05-07 18:13 53.86805 -1.65444 662 ft 9 kts 303°
2026-05-07 18:13 53.86814 -1.65548 664 ft 14 kts 271°
2026-05-07 18:13 53.86814 -1.65721 665 ft 10 kts 269°
2026-05-07 18:14 53.86837 -1.65762 665 ft 4 kts 355°
2026-05-07 18:14 53.86860 -1.65761 665 ft 3 kts 359°
2026-05-07 18:14 53.86875 -1.65760 665 ft 2 kts
2026-05-07 18:14 53.86880 -1.65760 665 ft 0 kts
2026-05-07 18:15 53.86882 -1.65760 665 ft 0 kts